Terug naar catalogus

STARLINK-31948

ActiefCommunicatieVLEO
NORAD 59941·PAYLOAD·🇺🇸 United States

Gelanceerd Jun 1, 2024 vanaf Cape Canaveral Space Force Station

Loading…

Volgende Passages (komende 24 uur)

TLE

VersSource: CelesTrak SupGP

Epoch: Sep 14, 2026, 21:09 UTC

1 59941C 24106V   26257.88173611 -.00016451  00000+0 -59586-3 0  2579
2 59941  43.0032 340.8121 0001471 265.3297  95.2925 15.27586366    10

Volg STARLINK-31948 in realtime met AllMySat

Download on the App Store